Weather History for MMLO - February, 2014

Change the Weather History Date:

Tuesday, February 25, 2014

  Actual Average Record
Temperature  
Mean Temperature 64 °F -  
Max Temperature 80 °F 79 °F 89 °F (2009)
Min Temperature 48 °F 45 °F 33 °F (2004)
Degree Days  
Heating Degree Days 1    
Growing Degree Days 14 (Base 50)    
Moisture  
Dew Point 37 °F    
Average Humidity 38    
Maximum Humidity 62    
Minimum Humidity 21    
Precipitation  
Precipitation 0.00 in - - ()
Sea Level Pressure  
Sea Level Pressure 30.09 in    
Wind  
Wind Speed 3 mph ()    
Max Wind Speed 12 mph    
Max Gust Speed -    
Visibility 8.7 miles    
Events      
Averages and records for this station are not official NWS values.
T = Trace of Precipitation, MM = Missing Value Source: Averaged Metar Reports

Daily Weather History Graph

Daily Weather History Graph

Search for Another Location

Airport or City:

Trip Planner

Search our weather history database for the weather conditions in past years. The results will help you decide how hot, cold, wet, or windy it might be!

Date:

Astronomy

Feb. 25, 2014 Rise Set
Actual Time 7:09 AM CST 6:48 PM CST
Civil Twilight 6:46 AM CST 7:11 PM CST
Nautical Twilight 6:21 AM CST 7:37 PM CST
Astronomical Twilight 5:55 AM CST 8:02 PM CST
Moon 3:45 AM CST (2/25) 3:15 PM CST (2/25)
Length of Visible Light 12h 24m
Length of Day
11h 39m
Waning Crescent, 18% of the Moon is Illuminated
Feb 25
Waning Crescent
Mar 1
New
Mar 8
First Quarter
Mar 16
Full
Mar 23
Last Quarter

Hourly Weather History & Observations

Time (CST) Temp. Dew Point Humidity Pressure Visibility Wind Dir Wind Speed Gust Speed Precip Events Conditions
12:43 AM 57.2 °F 35.6 °F 44% 30.21 in 8.0 mi Calm Calm - N/A   Clear
2:44 AM 51.8 °F 35.6 °F 54% 29.85 in 8.0 mi NE 5.8 mph - N/A   Clear
3:44 AM 51.8 °F 35.6 °F 54% 30.21 in 8.0 mi Calm Calm - N/A   Clear
4:44 AM 51.8 °F 35.6 °F 54% 30.21 in 8.0 mi NE 4.6 mph - N/A   Clear
5:43 AM 51.8 °F 35.6 °F 54% 29.85 in 8.0 mi North 3.5 mph - N/A   Clear
6:46 AM 48.2 °F 35.6 °F 62% 30.24 in 8.0 mi Calm Calm - N/A   Scattered Clouds
7:43 AM 51.8 °F 37.4 °F 58% 30.24 in 8.0 mi Calm Calm - N/A   Mostly Cloudy
8:45 AM 62.6 °F 35.6 °F 37% 29.95 in 8.0 mi Calm Calm - N/A   Mostly Cloudy
9:46 AM 68.0 °F 37.4 °F 33% 30.30 in 9.0 mi Calm Calm - N/A   Overcast
10:42 AM 71.6 °F 39.2 °F 31% 30.30 in 9.0 mi SSW 5.8 mph - N/A   Overcast
11:49 AM 75.2 °F 39.2 °F 27% 29.90 in 10.0 mi WSW 5.8 mph - N/A   Overcast
12:44 PM 75.2 °F 37.4 °F 25% 30.24 in 10.0 mi West 11.5 mph - N/A   Overcast
1:43 PM 78.8 °F 37.4 °F 23% 30.21 in 10.0 mi West 10.4 mph - N/A   Overcast
3:45 PM 80.6 °F 37.4 °F 21% 30.15 in 10.0 mi SW 4.6 mph - N/A   Overcast
4:46 PM 78.8 °F 37.4 °F 23% 30.12 in 10.0 mi West 5.8 mph - N/A   Overcast
5:48 PM 78.8 °F 37.4 °F 23% 29.77 in 10.0 mi WSW 5.8 mph - N/A   Mostly Cloudy
6:46 PM 73.4 °F 37.4 °F 27% 30.12 in 10.0 mi Calm Calm - N/A   Overcast
7:44 PM 69.8 °F 37.4 °F 31% 30.15 in 8.0 mi West 4.6 mph - N/A   Overcast
8:50 PM 68.0 °F 37.4 °F 33% 29.81 in 8.0 mi WNW 8.1 mph - N/A   Overcast
9:50 PM 64.4 °F 37.4 °F 37% 30.18 in 8.0 mi Calm Calm - N/A   Mostly Cloudy
10:42 PM 62.6 °F 37.4 °F 39% 30.19 in 8.0 mi Calm Calm - N/A   Scattered Clouds
11:49 PM 60.8 °F 39.2 °F 45% 29.83 in 8.0 mi Calm Calm - N/A   Scattered Clouds